owner,sensor,date,latitude,longitude,vertical_datum,sea_water_temperature,qcFlag
BP,ioos:station:wmo:42369:3,2023-01-25T20:20:00Z,27.2023,-90.2885,445.9,10.7,11111222
BP,ioos:station:wmo:42369:3,2023-01-25T20:40:00Z,27.2023,-90.2885,445.4,10.7,11111222
BP,ioos:station:wmo:42369:3,2023-01-25T21:00:00Z,27.2023,-90.2885,444.9,10.7,11111222
BP,ioos:station:wmo:42369:3,2023-01-25T21:20:00Z,27.2023,-90.2885,446.0,10.7,11111222
BP,ioos:station:wmo:42369:3,2023-01-25T21:40:00Z,27.2023,-90.2885,446.2,10.7,11111222
BP,ioos:station:wmo:42369:3,2023-01-25T22:00:00Z,27.2023,-90.2885,446.7,10.7,11111222
BP,ioos:station:wmo:42369:3,2023-01-25T22:20:00Z,27.2023,-90.2885,445.9,10.7,11111222
BP,ioos:station:wmo:42369:3,2023-01-25T22:40:00Z,27.2023,-90.2885,445.8,10.7,11111222
BP,ioos:station:wmo:42369:3,2023-01-25T23:00:00Z,27.2023,-90.2885,445.4,10.7,11111222
BP,ioos:station:wmo:42369:3,2023-01-25T23:20:00Z,27.2023,-90.2885,445.8,10.7,11111222
BP,ioos:station:wmo:42369:3,2023-01-25T23:40:00Z,27.2023,-90.2885,446.0,10.6,11111222
BP,ioos:station:wmo:42369:3,2023-01-26T00:00:00Z,27.2023,-90.2885,445.2,10.6,11111222
BP,ioos:station:wmo:42369:3,2023-01-26T00:20:00Z,27.2023,-90.2885,446.3,10.6,11111222
BP,ioos:station:wmo:42369:3,2023-01-26T00:40:00Z,27.2023,-90.2885,445.4,10.6,11111222
BP,ioos:station:wmo:42369:3,2023-01-26T01:00:00Z,27.2023,-90.2885,445.6,10.6,11111222
BP,ioos:station:wmo:42369:3,2023-01-26T01:20:00Z,27.2023,-90.2885,445.2,10.7,11111222
BP,ioos:station:wmo:42369:3,2023-01-26T01:40:00Z,27.2023,-90.2885,445.3,10.7,11111222
BP,ioos:station:wmo:42369:3,2023-01-26T02:00:00Z,27.2023,-90.2885,445.0,10.7,11111222
BP,ioos:station:wmo:42369:3,2023-01-26T02:20:00Z,27.2023,-90.2885,446.5,10.7,11111222
BP,ioos:station:wmo:42369:3,2023-01-26T02:40:00Z,27.2023,-90.2885,445.5,10.7,11111222
BP,ioos:station:wmo:42369:3,2023-01-26T03:00:00Z,27.2023,-90.2885,446.0,10.7,11111222
BP,ioos:station:wmo:42369:3,2023-01-26T03:20:00Z,27.2023,-90.2885,446.4,10.7,11111222
BP,ioos:station:wmo:42369:3,2023-01-26T03:40:00Z,27.2023,-90.2885,446.3,10.7,11111222
BP,ioos:station:wmo:42369:3,2023-01-26T04:00:00Z,27.2023,-90.2885,447.2,10.8,11111222
BP,ioos:station:wmo:42369:3,2023-01-26T04:20:00Z,27.2023,-90.2885,445.8,10.7,11111222
BP,ioos:station:wmo:42369:3,2023-01-26T04:40:00Z,27.2023,-90.2885,445.7,10.8,11111222
BP,ioos:station:wmo:42369:3,2023-01-26T05:00:00Z,27.2023,-90.2885,446.2,10.8,11111222
BP,ioos:station:wmo:42369:3,2023-01-26T05:20:00Z,27.2023,-90.2885,445.9,10.8,11111222
BP,ioos:station:wmo:42369:3,2023-01-26T05:40:00Z,27.2023,-90.2885,446.8,10.8,11111222
BP,ioos:station:wmo:42369:3,2023-01-26T06:00:00Z,27.2023,-90.2885,446.7,10.7,11111222
BP,ioos:station:wmo:42369:3,2023-01-26T06:20:00Z,27.2023,-90.2885,447.1,10.7,11111222
BP,ioos:station:wmo:42369:3,2023-01-26T06:40:00Z,27.2023,-90.2885,446.5,10.7,11111222
BP,ioos:station:wmo:42369:3,2023-01-26T07:00:00Z,27.2023,-90.2885,446.6,10.7,11111222
BP,ioos:station:wmo:42369:3,2023-01-26T07:20:00Z,27.2023,-90.2885,446.9,10.7,11111222
BP,ioos:station:wmo:42369:3,2023-01-26T07:40:00Z,27.2023,-90.2885,447.9,10.7,11111222
BP,ioos:station:wmo:42369:3,2023-01-26T08:00:00Z,27.2023,-90.2885,446.3,10.7,11111222
BP,ioos:station:wmo:42369:3,2023-01-26T08:20:00Z,27.2023,-90.2885,446.7,10.7,11111222
BP,ioos:station:wmo:42369:3,2023-01-26T08:40:00Z,27.2023,-90.2885,447.2,10.7,11111222
BP,ioos:station:wmo:42369:3,2023-01-26T09:00:00Z,27.2023,-90.2885,446.9,10.8,11111222
BP,ioos:station:wmo:42369:3,2023-01-26T09:20:00Z,27.2023,-90.2885,447.5,10.8,11111222
BP,ioos:station:wmo:42369:3,2023-01-26T09:40:00Z,27.2023,-90.2885,447.7,10.8,11111222
BP,ioos:station:wmo:42369:3,2023-01-26T10:00:00Z,27.2023,-90.2885,447.4,10.8,11111222
BP,ioos:station:wmo:42369:3,2023-01-26T10:20:00Z,27.2023,-90.2885,446.9,10.9,11111222
BP,ioos:station:wmo:42369:3,2023-01-26T10:40:00Z,27.2023,-90.2885,447.4,10.9,11111222
BP,ioos:station:wmo:42369:3,2023-01-26T11:00:00Z,27.2023,-90.2885,447.4,10.9,11111222
BP,ioos:station:wmo:42369:3,2023-01-26T11:20:00Z,27.2023,-90.2885,447.2,10.9,11111222
BP,ioos:station:wmo:42369:3,2023-01-26T11:40:00Z,27.2023,-90.2885,447.7,10.9,11111222
BP,ioos:station:wmo:42369:3,2023-01-26T12:00:00Z,27.2023,-90.2885,447.0,10.9,11111222
BP,ioos:station:wmo:42369:3,2023-01-26T12:20:00Z,27.2023,-90.2885,447.2,10.9,11111222
BP,ioos:station:wmo:42369:3,2023-01-26T12:40:00Z,27.2023,-90.2885,446.9,10.9,11111222
BP,ioos:station:wmo:42369:3,2023-01-26T13:00:00Z,27.2023,-90.2885,446.7,10.9,11111222
BP,ioos:station:wmo:42369:3,2023-01-26T13:20:00Z,27.2023,-90.2885,447.5,10.9,11111222
BP,ioos:station:wmo:42369:3,2023-01-26T13:40:00Z,27.2023,-90.2885,446.7,10.9,11111222
BP,ioos:station:wmo:42369:3,2023-01-26T14:00:00Z,27.2023,-90.2885,447.1,10.9,11111222
BP,ioos:station:wmo:42369:3,2023-01-26T14:20:00Z,27.2023,-90.2885,448.1,10.9,11111222
BP,ioos:station:wmo:42369:3,2023-01-26T14:40:00Z,27.2005,-90.2865,447.4,10.9,11111222
BP,ioos:station:wmo:42369:3,2023-01-26T15:00:00Z,27.2005,-90.2865,447.3,10.9,11111222
BP,ioos:station:wmo:42369:3,2023-01-26T15:20:00Z,27.2007,-90.2866,447.7,10.9,11111222
BP,ioos:station:wmo:42369:3,2023-01-26T15:40:00Z,27.2008,-90.2869,445.5,10.9,11111222
BP,ioos:station:wmo:42369:3,2023-01-26T16:00:00Z,27.2010,-90.2873,445.9,10.9,11111222
BP,ioos:station:wmo:42369:3,2023-01-26T16:20:00Z,27.2012,-90.2877,446.1,10.8,11111222
BP,ioos:station:wmo:42369:3,2023-01-26T16:40:00Z,27.2013,-90.2878,446.6,10.8,11111222
BP,ioos:station:wmo:42369:3,2023-01-26T19:20:00Z,27.2025,-90.2891,446.2,10.8,11111222
BP,ioos:station:wmo:42369:3,2023-01-26T19:40:00Z,27.2027,-90.2892,446.4,10.8,11111222
BP,ioos:station:wmo:42369:3,2023-01-26T20:00:00Z,27.2028,-90.2893,446.3,10.7,11111222
BP,ioos:station:wmo:42369:3,2023-01-26T20:20:00Z,27.2029,-90.2894,446.0,10.7,11111222
BP,ioos:station:wmo:42369:3,2023-01-26T20:40:00Z,27.2030,-90.2895,447.1,10.8,11111222
BP,ioos:station:wmo:42369:3,2023-01-26T21:00:00Z,27.2031,-90.2896,446.4,10.8,11111222
BP,ioos:station:wmo:42369:3,2023-01-26T21:20:00Z,27.2032,-90.2897,446.5,10.8,11111222
BP,ioos:station:wmo:42369:3,2023-01-26T21:40:00Z,27.2032,-90.2897,446.6,10.8,11111222
BP,ioos:station:wmo:42369:3,2023-01-26T22:00:00Z,27.2032,-90.2897,446.6,10.8,11111222
BP,ioos:station:wmo:42369:3,2023-01-26T22:20:00Z,27.2034,-90.2898,446.1,10.8,11111222
BP,ioos:station:wmo:42369:3,2023-01-26T22:40:00Z,27.2035,-90.2899,447.0,10.8,11111222
BP,ioos:station:wmo:42369:3,2023-01-26T23:00:00Z,27.2035,-90.2899,445.5,10.8,11111222
BP,ioos:station:wmo:42369:3,2023-01-26T23:20:00Z,27.2036,-90.2899,445.6,10.8,11111222
BP,ioos:station:wmo:42369:3,2023-01-26T23:40:00Z,27.2036,-90.2898,445.1,10.8,11111222
BP,ioos:station:wmo:42369:3,2023-01-27T00:00:00Z,27.2036,-90.2898,446.2,10.8,11111222
BP,ioos:station:wmo:42369:3,2023-01-27T00:40:00Z,27.2037,-90.2897,445.6,10.7,11111222
BP,ioos:station:wmo:42369:3,2023-01-27T01:00:00Z,27.2037,-90.2896,444.8,10.7,11111222
BP,ioos:station:wmo:42369:3,2023-01-27T01:20:00Z,27.2037,-90.2896,445.3,10.8,11111222
BP,ioos:station:wmo:42369:3,2023-01-27T01:40:00Z,27.2032,-90.2892,445.0,10.8,11111222
BP,ioos:station:wmo:42369:3,2023-01-27T02:00:00Z,27.2030,-90.2890,444.4,10.7,11111222
BP,ioos:station:wmo:42369:3,2023-01-27T02:20:00Z,27.2030,-90.2890,445.5,10.7,11111222
BP,ioos:station:wmo:42369:3,2023-01-27T02:40:00Z,27.2027,-90.2887,445.0,10.7,11111222
BP,ioos:station:wmo:42369:3,2023-01-27T03:00:00Z,27.2026,-90.2886,444.6,10.7,11111222
BP,ioos:station:wmo:42369:3,2023-01-27T03:20:00Z,27.2024,-90.2884,444.3,10.8,11111222
BP,ioos:station:wmo:42369:3,2023-01-27T03:40:00Z,27.2024,-90.2884,444.4,10.8,11111222
BP,ioos:station:wmo:42369:3,2023-01-27T04:00:00Z,27.2019,-90.2876,443.9,10.8,11111222
BP,ioos:station:wmo:42369:3,2023-01-27T04:20:00Z,27.2017,-90.2872,444.9,10.8,11111222
BP,ioos:station:wmo:42369:3,2023-01-27T04:40:00Z,27.2017,-90.2870,444.2,10.8,11111222
BP,ioos:station:wmo:42369:3,2023-01-27T05:00:00Z,27.2015,-90.2868,443.8,10.8,11111222
BP,ioos:station:wmo:42369:3,2023-01-27T05:20:00Z,27.2014,-90.2867,444.8,10.8,11111222
BP,ioos:station:wmo:42369:3,2023-01-27T05:40:00Z,27.2013,-90.2866,444.4,10.8,11111222
BP,ioos:station:wmo:42369:3,2023-01-27T06:00:00Z,27.2013,-90.2865,443.9,10.8,11111222
BP,ioos:station:wmo:42369:3,2023-01-27T06:20:00Z,27.2013,-90.2864,444.8,10.8,11111222
BP,ioos:station:wmo:42369:3,2023-01-27T06:40:00Z,27.2012,-90.2863,445.1,10.8,11111222
BP,ioos:station:wmo:42369:3,2023-01-27T07:00:00Z,27.2012,-90.2863,445.4,10.8,11111222
BP,ioos:station:wmo:42369:3,2023-01-27T07:20:00Z,27.2011,-90.2862,444.1,10.8,11111222
BP,ioos:station:wmo:42369:3,2023-01-27T07:40:00Z,27.2011,-90.2863,446.0,10.8,11111222
BP,ioos:station:wmo:42369:3,2023-01-27T08:00:00Z,27.2011,-90.2863,445.2,10.8,11111222
BP,ioos:station:wmo:42369:3,2023-01-27T08:20:00Z,27.2011,-90.2863,443.9,10.8,11111222
BP,ioos:station:wmo:42369:3,2023-01-27T08:40:00Z,27.2011,-90.2864,445.2,10.8,11111222
BP,ioos:station:wmo:42369:3,2023-01-27T09:00:00Z,27.2012,-90.2866,446.1,10.8,11111222
BP,ioos:station:wmo:42369:3,2023-01-27T09:20:00Z,27.2012,-90.2866,446.7,10.8,11111222
BP,ioos:station:wmo:42369:3,2023-01-27T09:40:00Z,27.2012,-90.2868,445.3,10.8,11111222
BP,ioos:station:wmo:42369:3,2023-01-27T10:00:00Z,27.2013,-90.2872,445.6,10.8,11111222
BP,ioos:station:wmo:42369:3,2023-01-27T10:20:00Z,27.2013,-90.2873,445.6,10.9,11111222
BP,ioos:station:wmo:42369:3,2023-01-27T10:40:00Z,27.2014,-90.2874,446.5,10.9,11111222
BP,ioos:station:wmo:42369:3,2023-01-27T11:00:00Z,27.2014,-90.2876,446.3,10.9,11111222
BP,ioos:station:wmo:42369:3,2023-01-27T11:40:00Z,27.2015,-90.2880,446.3,10.9,11111222
BP,ioos:station:wmo:42369:3,2023-01-27T12:00:00Z,27.2016,-90.2881,446.5,10.9,11111222
BP,ioos:station:wmo:42369:3,2023-01-27T12:20:00Z,27.2017,-90.2881,446.1,10.9,11111222
BP,ioos:station:wmo:42369:3,2023-01-27T12:40:00Z,27.2018,-90.2882,446.4,10.9,11111222
BP,ioos:station:wmo:42369:3,2023-01-27T13:00:00Z,27.2018,-90.2883,446.0,10.9,11111222
BP,ioos:station:wmo:42369:3,2023-01-27T13:20:00Z,27.2019,-90.2884,446.9,10.9,11111222
BP,ioos:station:wmo:42369:3,2023-01-27T13:40:00Z,27.2019,-90.2885,447.1,10.9,11111222
BP,ioos:station:wmo:42369:3,2023-01-27T14:20:00Z,27.2021,-90.2886,446.9,10.8,11111222
BP,ioos:station:wmo:42369:3,2023-01-27T14:40:00Z,27.2020,-90.2886,445.7,10.8,11111222
BP,ioos:station:wmo:42369:3,2023-01-27T15:20:00Z,27.2022,-90.2888,447.0,10.8,11111222
BP,ioos:station:wmo:42369:3,2023-01-27T15:40:00Z,27.2022,-90.2888,447.1,10.8,11111222
BP,ioos:station:wmo:42369:3,2023-01-27T16:00:00Z,27.2022,-90.2888,446.7,10.7,11111222
BP,ioos:station:wmo:42369:3,2023-01-27T16:20:00Z,27.2023,-90.2888,446.9,10.7,11111222
BP,ioos:station:wmo:42369:3,2023-01-27T16:40:00Z,27.2023,-90.2889,447.1,10.8,11111222
BP,ioos:station:wmo:42369:3,2023-01-27T17:00:00Z,27.2024,-90.2890,445.9,10.8,11111222
BP,ioos:station:wmo:42369:3,2023-01-27T17:20:00Z,27.2024,-90.2890,447.0,10.9,11111222
BP,ioos:station:wmo:42369:3,2023-01-27T17:40:00Z,27.2025,-90.2892,446.7,10.9,11111222
BP,ioos:station:wmo:42369:3,2023-01-27T18:00:00Z,27.2027,-90.2894,446.1,10.9,11111222
BP,ioos:station:wmo:42369:3,2023-01-27T18:20:00Z,27.2028,-90.2894,446.1,10.9,11111222
BP,ioos:station:wmo:42369:3,2023-01-27T18:40:00Z,27.2028,-90.2895,447.3,10.9,11111222
BP,ioos:station:wmo:42369:3,2023-01-27T19:00:00Z,27.2028,-90.2895,447.1,10.9,11111222
BP,ioos:station:wmo:42369:3,2023-01-27T19:20:00Z,27.2031,-90.2897,446.9,10.9,11111222
BP,ioos:station:wmo:42369:3,2023-01-27T19:40:00Z,27.2034,-90.2899,446.9,10.9,11111222
BP,ioos:station:wmo:42369:3,2023-01-27T20:20:00Z,27.2035,-90.2900,446.5,10.9,11111222
BP,ioos:station:wmo:42369:3,2023-01-27T20:40:00Z,27.2037,-90.2901,446.7,10.9,11111222
BP,ioos:station:wmo:42369:3,2023-01-27T21:00:00Z,27.2037,-90.2901,444.8,10.9,11111222
BP,ioos:station:wmo:42369:3,2023-01-27T21:20:00Z,27.2038,-90.2901,447.8,10.9,11111222
BP,ioos:station:wmo:42369:3,2023-01-27T21:40:00Z,27.2039,-90.2901,446.4,10.9,11111222
BP,ioos:station:wmo:42369:3,2023-01-27T22:00:00Z,27.2041,-90.2902,445.9,10.9,11111222
BP,ioos:station:wmo:42369:3,2023-01-27T22:20:00Z,27.2041,-90.2901,445.9,11.0,11111222
BP,ioos:station:wmo:42369:3,2023-01-27T22:40:00Z,27.2043,-90.2902,446.4,11.0,11111222
BP,ioos:station:wmo:42369:3,2023-01-27T23:00:00Z,27.2049,-90.2904,446.3,11.0,11111222
BP,ioos:station:wmo:42369:3,2023-01-27T23:20:00Z,27.2049,-90.2904,445.9,11.0,11111222
BP,ioos:station:wmo:42369:3,2023-01-27T23:40:00Z,27.2048,-90.2904,446.4,11.0,11111222
BP,ioos:station:wmo:42369:3,2023-01-28T00:40:00Z,27.2043,-90.2901,445.2,10.9,11111222
BP,ioos:station:wmo:42369:3,2023-01-28T01:00:00Z,27.2049,-90.2905,445.7,10.9,11111222
BP,ioos:station:wmo:42369:3,2023-01-28T01:40:00Z,27.2043,-90.2901,445.9,10.9,11111222
BP,ioos:station:wmo:42369:3,2023-01-28T02:00:00Z,27.2042,-90.2901,446.5,10.8,11111222
BP,ioos:station:wmo:42369:3,2023-01-28T02:20:00Z,27.2041,-90.2900,445.7,10.8,11111222
BP,ioos:station:wmo:42369:3,2023-01-28T02:40:00Z,27.2036,-90.2896,445.8,10.8,11111222
BP,ioos:station:wmo:42369:3,2023-01-28T03:00:00Z,27.2034,-90.2894,445.2,10.8,11111222
BP,ioos:station:wmo:42369:3,2023-01-28T03:20:00Z,27.2031,-90.2892,445.5,10.8,11111222
BP,ioos:station:wmo:42369:3,2023-01-28T03:40:00Z,27.2029,-90.2891,445.4,10.8,11111222
BP,ioos:station:wmo:42369:3,2023-01-28T04:00:00Z,27.2026,-90.2888,445.6,10.8,11111222
BP,ioos:station:wmo:42369:3,2023-01-28T04:20:00Z,27.2026,-90.2888,445.7,10.8,11111222
BP,ioos:station:wmo:42369:3,2023-01-28T04:40:00Z,27.2025,-90.2886,445.7,10.7,11111222
BP,ioos:station:wmo:42369:3,2023-01-28T05:00:00Z,27.2024,-90.2886,446.5,10.7,11111222
BP,ioos:station:wmo:42369:3,2023-01-28T05:20:00Z,27.2024,-90.2885,445.8,10.7,11111222
BP,ioos:station:wmo:42369:3,2023-01-28T05:40:00Z,27.2023,-90.2884,445.3,10.7,11111222
BP,ioos:station:wmo:42369:3,2023-01-28T06:00:00Z,27.2022,-90.2883,445.5,10.7,11111222
BP,ioos:station:wmo:42369:3,2023-01-28T06:40:00Z,27.2022,-90.2883,444.7,10.7,11111222
BP,ioos:station:wmo:42369:3,2023-01-28T07:00:00Z,27.2022,-90.2883,445.2,10.7,11111222
BP,ioos:station:wmo:42369:3,2023-01-28T07:20:00Z,27.2022,-90.2884,444.7,10.7,11111222
BP,ioos:station:wmo:42369:3,2023-01-28T07:40:00Z,27.2023,-90.2885,446.1,10.8,11111222
BP,ioos:station:wmo:42369:3,2023-01-28T08:00:00Z,27.2023,-90.2885,446.6,10.8,11111222
BP,ioos:station:wmo:42369:3,2023-01-28T08:20:00Z,27.2025,-90.2889,446.6,10.8,11111222
BP,ioos:station:wmo:42369:3,2023-01-28T08:40:00Z,27.2027,-90.2891,445.3,10.7,11111222
BP,ioos:station:wmo:42369:3,2023-01-28T09:00:00Z,27.2030,-90.2894,446.4,10.7,11111222
BP,ioos:station:wmo:42369:3,2023-01-28T09:20:00Z,27.2035,-90.2898,445.5,10.8,11111222
BP,ioos:station:wmo:42369:3,2023-01-28T09:40:00Z,27.2039,-90.2901,446.5,10.8,11111222
BP,ioos:station:wmo:42369:3,2023-01-28T10:00:00Z,27.2039,-90.2901,445.3,10.8,11111222
BP,ioos:station:wmo:42369:3,2023-01-28T10:20:00Z,27.2045,-90.2904,446.8,10.9,11111222
BP,ioos:station:wmo:42369:3,2023-01-28T10:40:00Z,27.2049,-90.2906,446.4,10.9,11111222
BP,ioos:station:wmo:42369:3,2023-01-28T11:00:00Z,27.2051,-90.2907,446.0,10.8,11111222
BP,ioos:station:wmo:42369:3,2023-01-28T11:20:00Z,27.2053,-90.2907,446.5,10.8,11111222
BP,ioos:station:wmo:42369:3,2023-01-28T11:40:00Z,27.2054,-90.2908,447.4,10.9,11111222
BP,ioos:station:wmo:42369:3,2023-01-28T12:20:00Z,27.2059,-90.2909,446.3,10.9,11111222
BP,ioos:station:wmo:42369:3,2023-01-28T12:40:00Z,27.2061,-90.2909,446.8,10.9,11111222
BP,ioos:station:wmo:42369:3,2023-01-28T13:00:00Z,27.2061,-90.2909,447.0,10.9,11111222
BP,ioos:station:wmo:42369:3,2023-01-28T13:20:00Z,27.2063,-90.2910,446.7,11.0,11111222
BP,ioos:station:wmo:42369:3,2023-01-28T13:40:00Z,27.2065,-90.2911,446.8,11.0,11111222
BP,ioos:station:wmo:42369:3,2023-01-28T16:20:00Z,27.2069,-90.2911,446.8,10.9,11111222
BP,ioos:station:wmo:42369:3,2023-01-28T17:40:00Z,27.2071,-90.2911,446.7,10.9,11111222
BP,ioos:station:wmo:42369:3,2023-01-28T18:00:00Z,27.2071,-90.2911,447.3,10.9,11111222
BP,ioos:station:wmo:42369:3,2023-01-28T19:20:00Z,27.2073,-90.2912,447.0,10.8,11111222
BP,ioos:station:wmo:42369:3,2023-01-28T20:20:00Z,27.2086,-90.2911,447.0,10.8,11111222
BP,ioos:station:wmo:42369:3,2023-01-28T20:40:00Z,27.2087,-90.2910,447.3,10.8,11111222
BP,ioos:station:wmo:42369:3,2023-01-28T21:00:00Z,27.2088,-90.2911,447.3,10.8,11111222
BP,ioos:station:wmo:42369:3,2023-01-28T21:20:00Z,27.2089,-90.2910,447.9,10.8,11111222
BP,ioos:station:wmo:42369:3,2023-01-28T21:40:00Z,27.2089,-90.2910,447.9,10.8,11111222
BP,ioos:station:wmo:42369:3,2023-01-28T22:20:00Z,27.2088,-90.2911,447.4,10.9,11111222
BP,ioos:station:wmo:42369:3,2023-01-28T22:40:00Z,27.2090,-90.2910,448.2,10.8,11111222
BP,ioos:station:wmo:42369:3,2023-01-28T23:00:00Z,27.2091,-90.2909,447.3,10.8,11111222
BP,ioos:station:wmo:42369:3,2023-01-28T23:20:00Z,27.2092,-90.2909,447.3,10.8,11111222
BP,ioos:station:wmo:42369:3,2023-01-28T23:40:00Z,27.2092,-90.2909,447.4,10.8,11111222
BP,ioos:station:wmo:42369:3,2023-01-29T00:00:00Z,27.2093,-90.2909,447.3,10.8,11111222
BP,ioos:station:wmo:42369:3,2023-01-29T00:20:00Z,27.2093,-90.2909,446.4,10.8,11111222
BP,ioos:station:wmo:42369:3,2023-01-29T00:40:00Z,27.2094,-90.2908,446.7,10.9,11111222
BP,ioos:station:wmo:42369:3,2023-01-29T01:00:00Z,27.2094,-90.2908,447.0,10.9,11111222
BP,ioos:station:wmo:42369:3,2023-01-29T01:20:00Z,27.2095,-90.2907,446.8,10.8,11111222
BP,ioos:station:wmo:42369:3,2023-01-29T01:40:00Z,27.2095,-90.2906,446.1,10.8,11111222
BP,ioos:station:wmo:42369:3,2023-01-29T02:00:00Z,27.2096,-90.2906,445.7,10.8,11111222
BP,ioos:station:wmo:42369:3,2023-01-29T02:20:00Z,27.2096,-90.2906,446.2,10.8,11111222
BP,ioos:station:wmo:42369:3,2023-01-29T03:00:00Z,27.2095,-90.2905,445.4,10.9,11111222
BP,ioos:station:wmo:42369:3,2023-01-29T03:20:00Z,27.2094,-90.2905,445.0,10.8,11111222
BP,ioos:station:wmo:42369:3,2023-01-29T03:40:00Z,27.2093,-90.2904,445.2,10.8,11111222
BP,ioos:station:wmo:42369:3,2023-01-29T04:00:00Z,27.2091,-90.2904,444.7,10.8,11111222
BP,ioos:station:wmo:42369:3,2023-01-29T04:20:00Z,27.2090,-90.2904,445.3,10.8,11111222
BP,ioos:station:wmo:42369:3,2023-01-29T04:40:00Z,27.2087,-90.2903,444.1,10.8,11111222
BP,ioos:station:wmo:42369:3,2023-01-29T05:00:00Z,27.2085,-90.2904,444.8,10.9,11111222
BP,ioos:station:wmo:42369:3,2023-01-29T05:20:00Z,27.2082,-90.2904,445.4,10.8,11111222
BP,ioos:station:wmo:42369:3,2023-01-29T05:40:00Z,27.2081,-90.2903,444.5,10.9,11111222
BP,ioos:station:wmo:42369:3,2023-01-29T06:00:00Z,27.2079,-90.2903,445.0,10.8,11111222
BP,ioos:station:wmo:42369:3,2023-01-29T06:20:00Z,27.2075,-90.2903,444.9,10.8,11111222
BP,ioos:station:wmo:42369:3,2023-01-29T06:40:00Z,27.2070,-90.2903,444.6,10.9,11111222
BP,ioos:station:wmo:42369:3,2023-01-29T07:20:00Z,27.2060,-90.2902,445.5,10.9,11111222
BP,ioos:station:wmo:42369:3,2023-01-29T07:40:00Z,27.2058,-90.2901,444.9,10.9,11111222
BP,ioos:station:wmo:42369:3,2023-01-29T08:20:00Z,27.2048,-90.2900,445.2,10.9,11111222
BP,ioos:station:wmo:42369:3,2023-01-29T08:40:00Z,27.2044,-90.2898,445.7,10.9,11111222
BP,ioos:station:wmo:42369:3,2023-01-29T09:00:00Z,27.2042,-90.2897,445.0,10.9,11111222
BP,ioos:station:wmo:42369:3,2023-01-29T09:20:00Z,27.2039,-90.2896,445.8,10.9,11111222
BP,ioos:station:wmo:42369:3,2023-01-29T09:40:00Z,27.2038,-90.2896,444.8,10.9,11111222
BP,ioos:station:wmo:42369:3,2023-01-29T10:00:00Z,27.2038,-90.2896,445.1,10.9,11111222
BP,ioos:station:wmo:42369:3,2023-01-29T10:20:00Z,27.2036,-90.2895,444.6,10.9,11111222
BP,ioos:station:wmo:42369:3,2023-01-29T10:40:00Z,27.2037,-90.2895,445.2,11.0,11111222
BP,ioos:station:wmo:42369:3,2023-01-29T11:00:00Z,27.2037,-90.2895,445.3,11.0,11111222
BP,ioos:station:wmo:42369:3,2023-01-29T11:20:00Z,27.2039,-90.2896,445.5,10.9,11111222
BP,ioos:station:wmo:42369:3,2023-01-29T11:40:00Z,27.2040,-90.2897,444.8,10.9,11111222
BP,ioos:station:wmo:42369:3,2023-01-29T12:20:00Z,27.2043,-90.2898,444.9,10.9,11111222
BP,ioos:station:wmo:42369:3,2023-01-29T12:40:00Z,27.2045,-90.2899,445.0,11.0,11111222
BP,ioos:station:wmo:42369:3,2023-01-29T13:00:00Z,27.2045,-90.2900,445.2,11.0,11111222
BP,ioos:station:wmo:42369:3,2023-01-29T13:20:00Z,27.2045,-90.2901,445.1,11.0,11111222
BP,ioos:station:wmo:42369:3,2023-01-29T13:40:00Z,27.2047,-90.2902,445.4,11.0,11111222
BP,ioos:station:wmo:42369:3,2023-01-29T14:00:00Z,27.2048,-90.2903,445.3,10.9,11111222
BP,ioos:station:wmo:42369:3,2023-01-29T14:20:00Z,27.2049,-90.2903,445.5,10.9,11111222
BP,ioos:station:wmo:42369:3,2023-01-29T14:40:00Z,27.2050,-90.2904,446.1,10.9,11111222
BP,ioos:station:wmo:42369:3,2023-01-29T15:00:00Z,27.2052,-90.2905,445.5,10.9,11111222
BP,ioos:station:wmo:42369:3,2023-01-29T15:20:00Z,27.2054,-90.2906,445.5,10.9,11111222
BP,ioos:station:wmo:42369:3,2023-01-29T15:40:00Z,27.2054,-90.2906,445.4,10.8,11111222
BP,ioos:station:wmo:42369:3,2023-01-29T16:00:00Z,27.2055,-90.2905,444.6,10.8,11111222
BP,ioos:station:wmo:42369:3,2023-01-29T16:20:00Z,27.2053,-90.2903,445.3,10.9,11111222
BP,ioos:station:wmo:42369:3,2023-01-29T16:40:00Z,27.2053,-90.2903,445.0,11.0,11111222
BP,ioos:station:wmo:42369:3,2023-01-29T17:00:00Z,27.2053,-90.2902,445.0,11.0,11111222
BP,ioos:station:wmo:42369:3,2023-01-29T17:20:00Z,27.2054,-90.2902,445.2,11.0,11111222
BP,ioos:station:wmo:42369:3,2023-01-29T17:40:00Z,27.2054,-90.2902,444.3,10.9,11111222
BP,ioos:station:wmo:42369:3,2023-01-29T18:00:00Z,27.2055,-90.2902,445.3,10.9,11111222
BP,ioos:station:wmo:42369:3,2023-01-29T18:20:00Z,27.2059,-90.2902,444.2,10.9,11111222
BP,ioos:station:wmo:42369:3,2023-01-29T20:20:00Z,27.2072,-90.2900,446.0,10.9,11111222
BP,ioos:station:wmo:42369:3,2023-01-29T20:40:00Z,27.2074,-90.2900,445.3,10.9,11111222
BP,ioos:station:wmo:42369:3,2023-01-29T21:00:00Z,27.2075,-90.2900,444.2,10.9,11111222
BP,ioos:station:wmo:42369:3,2023-01-29T21:20:00Z,27.2075,-90.2900,444.1,10.8,11111222
BP,ioos:station:wmo:42369:3,2023-01-29T21:40:00Z,27.2075,-90.2900,444.6,10.8,11111222
BP,ioos:station:wmo:42369:3,2023-01-29T22:00:00Z,27.2079,-90.2900,444.9,10.8,11111222
BP,ioos:station:wmo:42369:3,2023-01-29T22:20:00Z,27.2081,-90.2898,444.9,10.8,11111222
BP,ioos:station:wmo:42369:3,2023-01-29T22:40:00Z,27.2081,-90.2897,444.9,10.8,11111222
BP,ioos:station:wmo:42369:3,2023-01-29T23:00:00Z,27.2081,-90.2897,444.0,10.8,11111222
BP,ioos:station:wmo:42369:3,2023-01-29T23:20:00Z,27.2080,-90.2896,444.8,10.8,11111222
BP,ioos:station:wmo:42369:3,2023-01-29T23:40:00Z,27.2078,-90.2896,445.6,10.7,11111222
BP,ioos:station:wmo:42369:3,2023-01-30T00:00:00Z,27.2077,-90.2895,444.8,10.8,11111222
BP,ioos:station:wmo:42369:3,2023-01-30T00:20:00Z,27.2076,-90.2895,445.6,10.8,11111222
BP,ioos:station:wmo:42369:3,2023-01-30T00:40:00Z,27.2076,-90.2895,444.5,10.8,11111222
BP,ioos:station:wmo:42369:3,2023-01-30T01:00:00Z,27.2073,-90.2895,445.1,10.8,11111222
BP,ioos:station:wmo:42369:3,2023-01-30T01:20:00Z,27.2073,-90.2895,445.8,10.8,11111222
BP,ioos:station:wmo:42369:3,2023-01-30T01:40:00Z,27.2073,-90.2895,444.6,10.9,11111222
BP,ioos:station:wmo:42369:3,2023-01-30T02:00:00Z,27.2072,-90.2894,444.4,10.9,11111222
BP,ioos:station:wmo:42369:3,2023-01-30T03:20:00Z,27.2065,-90.2889,444.4,10.9,11111222
BP,ioos:station:wmo:42369:3,2023-01-30T03:40:00Z,27.2062,-90.2888,444.9,10.9,11111222
BP,ioos:station:wmo:42369:3,2023-01-30T04:00:00Z,27.2059,-90.2886,445.0,11.0,11111222
BP,ioos:station:wmo:42369:3,2023-01-30T04:20:00Z,27.2056,-90.2885,444.9,10.9,11111222
BP,ioos:station:wmo:42369:3,2023-01-30T04:40:00Z,27.2056,-90.2885,443.9,10.9,11111222
BP,ioos:station:wmo:42369:3,2023-01-30T05:00:00Z,27.2052,-90.2883,444.6,10.9,11111222
BP,ioos:station:wmo:42369:3,2023-01-30T05:20:00Z,27.2048,-90.2881,444.7,10.9,11111222
BP,ioos:station:wmo:42369:3,2023-01-30T05:40:00Z,27.2043,-90.2878,444.7,10.9,11111222
BP,ioos:station:wmo:42369:3,2023-01-30T06:00:00Z,27.2038,-90.2876,444.5,10.9,11111222
BP,ioos:station:wmo:42369:3,2023-01-30T06:20:00Z,27.2034,-90.2873,445.0,10.9,11111222